Regional Weather Roundup
Issued by NWS

Home | Current Version | Previous Version | Graphics & Text | Print | Product List | Glossary On
Versions: 1 2 3 4 5 6 7 8 9 10 11 12 13 14 15 16 17 18 19 20 21 22 23 24 25 26 27 28 29 30 31 32 33 34 35 36 37 38 39 40 41 42 43 44 45 46 47 48 49 50
000
ASUS43 KFSD 281210
RWRSD

WEATHER ROUNDUP FOR SOUTH DAKOTA
NATIONAL WEATHER SERVICE SIOUX FALLS SD
700 AM CDT FRI JUL 28 2017

NOTE: "FAIR" INDICATES FEW OR NO CLOUDS BELOW 12,000 FEET WITH NO
SIGNIFICANT WEATHER AND/OR OBSTRUCTIONS TO VISIBILITY.


SDZ001>005-009-010-012>017-281300-
NORTHWEST AND NORTH CENTRAL SOUTH DAKOTA

CITY           SKY/WX    TMP DP  RH WIND       PRES   REMARKS
BUFFALO          N/A     60  56  86 S8        29.98R
FAITH            N/A     65  60  84 SE14      30.03R
MOBRIDGE       CLOUDY    71  62  73 SE8       30.03R
$$

SDZ012>016-024>037-041>051-057-063-072>074-281300-
SOUTHWEST AND SOUTH CENTRAL SOUTH DAKOTA

CITY           SKY/WX    TMP DP  RH WIND       PRES   REMARKS
RAPID CTY ARPT CLOUDY    59  55  87 CALM      30.05R
PIERRE         CLOUDY    69  61  75 E7        30.03S
CUSTER         CLOUDY    56  51  84 W5        30.17R
ELLSWORTH AFB  CLOUDY    60  58  93 S7        30.05R
PHILIP         PTCLDY    64  62  93 E7        30.02R
PINE RIDGE     CLOUDY    65  61  87 W6        30.03F
SPEARFISH      FAIR      61  55  82 SW5       30.09R
WINNER         CLOUDY    69  63  81 SE7       30.07S
$$

SDZ004>011-016>023-039-040-281300-
NORTHEAST SOUTH DAKOTA

CITY           SKY/WX    TMP DP  RH WIND       PRES   REMARKS
ABERDEEN       CLOUDY    66  64  93 CALM      30.08S
WATERTOWN      CLOUDY    65  61  87 CALM      30.09S
BROOKINGS      CLOUDY    66  63  90 E3        30.10S
SISSETON         N/A     63  60  90 CALM      30.08S
$$

SDZ017-020-022-023-036>040-048>070-281300-
SOUTHEAST SOUTH DAKOTA

CITY           SKY/WX    TMP DP  RH WIND       PRES   REMARKS
SIOUX FALLS    CLOUDY    63  62  97 CALM      30.10R
HURON          CLOUDY    66  64  93 SE3       30.08R
CHAMBERLAIN    CLOUDY    69  66  90 S6        30.07S
MITCHELL       CLOUDY    66  64  93 SE3       30.08S
$$

ABBREVIATIONS USED IN REMARKS
   TC - TEMPERATURE IN CELSIUS
  WCI - WIND CHILL INDEX
   HX - HEAT INDEX
  VSB - VISIBILITY





USA.gov is the U.S. government's official web portal to all federal, state and local government web resources and services.